Cape Flattery Observation History
Time Wind Speed Temp Pressure Rel. Hum Rain
04/08:00am SSE 19-26 kts 24.1°c 1017.4 hPa 69% 0.0mm
04/07:30am SSE 18-26 kts 23.7°c 1017.1 hPa 69% 0.0mm
04/07:00am SSE 19-24 kts 23.4°c 1017.0 hPa 69% 0.0mm
04/06:30am SSE 19-27 kts 23.4°c 1016.5 hPa 70% 0.0mm
04/06:00am SSE 19-24 kts 23.5°c 1016.1 hPa 68% 0.0mm
04/05:33am SSE 18-28 kts 23.6°c 1015.8 hPa 67% 0.0mm
04/05:30am SSE 17-25 kts 23.6°c 1015.8 hPa 67% 0.0mm
04/05:00am SSE 18-25 kts 23.4°c 1015.7 hPa 69% 0.0mm
04/04:30am SSE 18-24 kts 23.6°c 1015.6 hPa 72% 0.0mm
04/04:00am SSE 19-27 kts 23.5°c 1015.7 hPa 71% 0.0mm
04/03:30am SSE 19-25 kts 23.2°c 1015.8 hPa 71% 0.0mm
04/03:00am SSE 20-25 kts 23.2°c 1015.9 hPa 69% 0.0mm
04/02:30am SSE 17-25 kts 23.2°c 1016.1 hPa 69% 0.0mm
04/02:00am SSE 18-25 kts 23.2°c 1016.4 hPa 69% 0.0mm
04/01:38am SSE 17-27 kts 23.2°c 1016.7 hPa 69% 0.0mm
04/01:30am SSE 18-27 kts 23.3°c 1016.8 hPa 69% 0.0mm
04/01:00am SSE 19-27 kts 23.5°c 1016.9 hPa 69% 0.0mm
04/12:30am SSE 20-27 kts 23.5°c 1017.1 hPa 68% 0.0mm
04/12:16am SSE 19-29 kts 23.6°c 1017.3 hPa 67% 0.0mm
04/12:00am SSE 21-29 kts 23.6°c 1017.4 hPa 67% 0.0mm
Time Wind Speed Temp Pressure Rel. Hum Rain
03/11:30pm SSE 21-27 kts 23.7°c 1017.6 hPa 67% 0.0mm
03/11:00pm SE 21-28 kts 23.8°c 1017.9 hPa 68% 0.0mm
03/10:30pm SSE 20-27 kts 23.9°c 1018.2 hPa 69% 0.0mm
03/10:00pm SSE 19-30 kts 24.1°c 1018.4 hPa 68% 0.0mm
03/09:59pm SSE 19-30 kts 24.2°c 1018.5 hPa 68% 0.0mm
03/09:30pm SSE 20-27 kts 24.0°c 1018.4 hPa 69% 0.0mm
03/09:06pm SSE 19-29 kts 24.0°c 1018.3 hPa 69% 0.0mm
03/09:00pm SSE 21-28 kts 24.1°c 1018.2 hPa 70% 0.0mm
03/08:30pm SSE 18-25 kts 24.2°c 1018.0 hPa 71% 0.0mm
03/08:05pm SSE 19-29 kts 24.3°c 1017.7 hPa 68% 0.0mm
03/08:00pm SSE 20-26 kts 24.3°c 1017.6 hPa 70% 0.0mm
03/07:30pm SSE 20-25 kts 24.5°c 1017.3 hPa 67% 0.0mm
03/07:00pm SSE 20-28 kts 24.8°c 1017.0 hPa 69% 0.0mm
03/06:30pm SSE 19-25 kts 24.8°c 1016.7 hPa 68% 0.0mm
03/06:00pm SSE 19-26 kts 24.8°c 1016.3 hPa 69% 0.0mm
03/05:30pm SSE 18-25 kts 25.0°c 1016.1 hPa 69% 0.0mm
03/05:00pm SSE 18-25 kts 25.3°c 1015.9 hPa 66% 0.0mm
03/04:30pm SSE 18-25 kts 25.8°c 1015.6 hPa 64% 0.0mm
03/04:00pm SSE 21-26 kts 26.2°c 1015.4 hPa 59% 0.0mm
03/03:30pm SE 19-26 kts 26.6°c 1015.4 hPa 60% 0.0mm
03/03:00pm SE 19-27 kts 27.2°c 1015.5 hPa 58% 0.0mm
03/02:30pm SE 21-27 kts 27.1°c 1015.6 hPa 58% 0.0mm
03/02:00pm SE 18-28 kts 27.4°c 1015.9 hPa 58% 0.0mm
03/01:59pm SE 18-28 kts 27.5°c 1015.9 hPa 59% 0.0mm
03/01:30pm SE 20-27 kts 27.5°c 1016.0 hPa 57% 0.0mm
03/01:00pm SE 19-28 kts 27.6°c 1016.3 hPa 58% 0.0mm
03/12:38pm SE 17-27 kts 27.8°c 1016.7 hPa 53% 0.0mm
03/12:30pm SE 19-26 kts 28.1°c 1016.7 hPa 57% 0.0mm
03/12:00pm SE 20-28 kts 27.3°c 1017.0 hPa 58% 0.0mm
03/11:30am SE 20-30 kts 27.4°c 1017.3 hPa 57% 0.0mm
03/11:00am SE 18-26 kts 26.4°c 1017.4 hPa 63% 0.0mm
03/10:33am SE 17-27 kts 25.7°c 1017.7 hPa 63% 0.0mm
03/10:30am SE 18-27 kts 25.7°c 1017.7 hPa 65% 0.0mm
03/10:00am SE 18-26 kts 25.7°c 1018.0 hPa 64% 0.0mm
03/09:30am SE 17-25 kts 26.8°c 1017.9 hPa 62% 0.0mm
03/09:00am SE 17-25 kts 25.1°c 1017.8 hPa 66% 0.0mm
03/08:44am SE 16-27 kts 25.3°c 1017.9 hPa 64% 0.0mm
03/08:30am SE 18-25 kts 25.5°c 1017.8 hPa 65% 0.0mm
03/08:23am SE 17-27 kts 25.3°c 1017.6 hPa 62% 0.0mm
03/08:00am SE 17-24 kts 25.2°c 1017.3 hPa 65% 0.0mm
03/07:30am SE 17-24 kts 24.8°c 1017.0 hPa 68% 0.0mm
03/07:00am SE 15-22 kts 24.3°c 1016.7 hPa 72% 0.0mm
03/06:30am SE 16-21 kts 24.1°c 1016.5 hPa 70% 0.0mm
03/06:00am SE 17-24 kts 24.1°c 1016.1 hPa 71% 0.0mm
03/05:30am SE 15-22 kts 23.9°c 1015.9 hPa 70% 0.0mm
03/05:00am SE 14-19 kts 24.0°c 1015.7 hPa 74% 0.0mm
03/04:30am SE 14-21 kts 23.9°c 1015.7 hPa 73% 0.0mm
03/04:00am SE 15-21 kts 23.9°c 1015.7 hPa 73% 0.0mm
03/03:30am SE 15-23 kts 24.0°c 1015.8 hPa 73% 0.0mm
03/03:00am SE 17-23 kts 24.1°c 1015.8 hPa 72% 0.0mm
03/02:30am SE 15-22 kts 24.0°c 1015.9 hPa 72% 0.0mm
03/02:00am SE 17-22 kts 24.1°c 1016.1 hPa 71% 0.0mm
03/01:30am SSE 16-23 kts 24.1°c 1016.4 hPa 70% 0.0mm
03/01:00am SSE 17-23 kts 24.0°c 1016.8 hPa 70% 0.0mm
03/12:30am SSE 16-22 kts 24.0°c 1017.0 hPa 71% 0.0mm
03/12:00am SSE 17-22 kts 24.1°c 1017.3 hPa 72% 0.0mm
Time Wind Speed Temp Pressure Rel. Hum Rain
02/11:30pm SSE 15-21 kts 24.0°c 1017.7 hPa 71% 0.0mm
02/11:00pm SSE 17-23 kts 24.1°c 1017.9 hPa 73% 0.0mm
02/10:30pm SSE 17-22 kts 24.2°c 1018.0 hPa 73% 0.0mm
02/10:00pm SSE 17-23 kts 24.3°c 1018.2 hPa 74% 0.0mm
02/09:30pm SSE 15-22 kts 24.2°c 1018.0 hPa 72% 0.0mm
02/09:00pm SSE 16-21 kts 24.2°c 1017.9 hPa 74% 0.0mm
02/08:30pm SSE 17-24 kts 24.3°c 1017.7 hPa 74% 0.0mm
02/08:00pm SSE 16-23 kts 24.3°c 1017.4 hPa 73% 0.0mm
02/07:30pm SSE 16-22 kts 24.4°c 1017.0 hPa 73% 0.0mm
02/07:00pm SSE 16-22 kts 24.4°c 1016.6 hPa 75% 0.0mm
02/06:30pm SSE 17-23 kts 24.4°c 1016.5 hPa 74% 0.0mm
02/06:00pm SSE 17-24 kts 24.3°c 1016.1 hPa 76% 0.0mm
02/05:30pm SSE 16-22 kts 24.5°c 1015.8 hPa 74% 0.0mm
02/05:00pm SSE 18-25 kts 25.0°c 1015.5 hPa 74% 0.0mm
02/04:30pm SSE 17-23 kts 25.4°c 1015.4 hPa 72% 0.0mm
02/04:16pm SSE 17-27 kts 25.4°c 1015.3 hPa 70% 0.0mm
02/04:00pm SSE 17-24 kts 25.8°c 1015.3 hPa 71% 0.0mm
02/03:30pm SSE 17-23 kts 25.6°c 1015.3 hPa 73% 0.0mm
02/03:00pm SSE 18-22 kts 26.1°c 1015.3 hPa 71% 0.0mm
02/02:30pm SSE 16-23 kts 26.8°c 1015.3 hPa 70% 0.0mm
02/02:00pm SSE 17-23 kts 26.8°c 1015.6 hPa 69% 0.0mm
02/01:30pm SSE 19-24 kts 26.5°c 1015.9 hPa 71% 0.0mm
02/01:00pm SSE 17-22 kts 26.6°c 1016.3 hPa 71% 0.0mm
02/12:30pm SSE 18-22 kts 27.4°c 1016.6 hPa 59% 0.0mm
02/12:00pm SSE 15-22 kts 27.9°c 1016.8 hPa 58% 0.0mm
02/11:30am SSE 17-23 kts 27.4°c 1017.2 hPa 59% 0.0mm
02/11:00am SSE 17-22 kts 27.0°c 1017.4 hPa 60% 0.0mm
02/10:30am SSE 17-21 kts 27.2°c 1017.5 hPa 62% 0.0mm
02/10:00am SSE 16-21 kts 27.0°c 1017.6 hPa 60% 0.0mm
02/09:30am SSE 15-21 kts 26.3°c 1017.6 hPa 63% 0.0mm
02/09:00am SSE 15-19 kts 26.1°c 1017.5 hPa 65% 0.0mm
02/08:30am SSE 15-21 kts 25.6°c 1017.2 hPa 65% 0.0mm
02/08:00am SSE 14-19 kts 25.0°c 1017.0 hPa 66% 0.0mm
02/07:30am SE 13-17 kts 24.4°c 1016.7 hPa 71% 0.0mm
02/07:00am SE 12-17 kts 23.8°c 1016.5 hPa 73% 0.0mm
02/06:30am SE 12-15 kts 23.6°c 1016.1 hPa 75% 0.0mm
02/06:00am SE 12-17 kts 23.7°c 1015.9 hPa 73% 0.0mm
02/05:30am SE 11-15 kts 23.7°c 1015.8 hPa 74% 0.0mm
02/05:00am SE 11-16 kts 23.7°c 1015.7 hPa 74% 0.0mm
02/04:30am SE 11-15 kts 23.8°c 1015.6 hPa 74% 0.0mm
02/04:00am SE 12-17 kts 23.9°c 1015.5 hPa 75% 0.0mm
02/03:30am SE 11-14 kts 23.8°c 1015.5 hPa 76% 0.0mm
02/03:00am SE 12-15 kts 23.9°c 1015.5 hPa 76% 0.0mm
02/02:30am SE 10-14 kts 23.8°c 1015.5 hPa 75% 0.0mm
02/02:00am SE 10-13 kts 23.9°c 1015.8 hPa 76% 0.0mm
02/01:30am SE 11-16 kts 24.2°c 1016.1 hPa 74% 0.0mm
02/01:00am SE 10-15 kts 24.0°c 1016.5 hPa 76% 0.0mm
02/12:30am SE 9-12 kts 24.1°c 1016.7 hPa 76% 0.0mm
02/12:00am SE 10-13 kts 24.2°c 1017.0 hPa 75% 0.0mm